Abilene, TX

2:26 AM CST on January 19, 2018 (GMT -0600)
Abilene Regional

Weather History for KABI - November, 2014

Change the Weather History Date:

Saturday, November 15, 2014

  Actual Average Record
Temperature  
Mean Temperature 48 °F 55 °F  
Max Temperature 64 °F 67 °F 85 °F (1955)
Min Temperature 32 °F 43 °F 20 °F (1916)
Degree Days  
Heating Degree Days 17 11  
Month to date heating degree days 196 123  
Since 1 July heating degree days 223 227  
Cooling Degree Days 0 0  
Month to date cooling degree days 9 15  
Year to date cooling degree days 2819 2404  
Moisture  
Dew Point 34 °F    
Average Humidity 62    
Maximum Humidity 77    
Minimum Humidity 46    
Precipitation  
Precipitation 0.00 in 0.04 in 1.39 in (2004)
Month to date precipitation 2.08 0.82  
Year to date precipitation 14.13 23.00  
Sea Level Pressure  
Sea Level Pressure 30.00 in    
Wind  
Wind Speed 15 mph (South)    
Max Wind Speed 24 mph    
Max Gust Speed 32 mph    
Visibility 10 miles    
Events      
T = Trace of Precipitation, MM = Missing Value Source: NWS Daily Summary

Daily Weather History Graph

Daily Weather History Graph

Search for Another Location

Airport or City:

Trip Planner

Search our weather history database for the weather conditions in past years. The results will help you decide how hot, cold, wet, or windy it might be!

Date:

Astronomy

Nov. 15, 2014 Rise Set
Actual Time 7:08 AM CST 5:38 PM CST
Civil Twilight 6:42 AM CST 6:04 PM CST
Nautical Twilight 6:12 AM CST 6:33 PM CST
Astronomical Twilight 5:43 AM CST 7:02 PM CST
Moon 12:44 AM CST (11/15) 1:41 PM CST (11/15)
Length of Visible Light 11h 22m
Length of Day
10h 29m
Last Quarter, 40% of the Moon is Illuminated
Nov 15
Last Quarter
Nov 22
New
Nov 29
First Quarter
Dec 6
Full
Dec 14
Last Quarter

Hourly Weather History & Observations

Time (CST) Temp. Windchill Dew Point Humidity Pressure Visibility Wind Dir Wind Speed Gust Speed Precip Events Conditions
12:52 AM 33.1 °F 23.9 °F 21.0 °F 61% 30.17 in 10.0 mi SE 12.7 mph - N/A   Clear
1:52 AM 32.0 °F 21.6 °F 21.9 °F 66% 30.13 in 10.0 mi SSE 15.0 mph - N/A   Clear
2:52 AM 32.0 °F 23.0 °F 21.9 °F 66% 30.11 in 10.0 mi SSE 11.5 mph - N/A   Clear
3:52 AM 32.0 °F 23.0 °F 23.0 °F 69% 30.10 in 10.0 mi SSE 11.5 mph - N/A   Clear
4:52 AM 33.1 °F 24.4 °F 23.0 °F 66% 30.11 in 10.0 mi SSE 11.5 mph - N/A   Clear
5:52 AM 34.0 °F 24.6 °F 23.0 °F 64% 30.09 in 10.0 mi SSE 13.8 mph - N/A   Clear
6:52 AM 34.0 °F 23.8 °F 23.0 °F 64% 30.09 in 10.0 mi South 16.1 mph - N/A   Clear
7:52 AM 35.1 °F 25.5 °F 23.0 °F 61% 30.11 in 10.0 mi South 15.0 mph - N/A   Clear
8:52 AM 39.0 °F 30.6 °F 24.1 °F 55% 30.09 in 10.0 mi South 15.0 mph - N/A   Clear
9:52 AM 45.0 °F 37.1 °F 26.1 °F 48% 30.05 in 10.0 mi South 19.6 mph - N/A   Clear
10:52 AM 48.9 °F - 30.9 °F 50% 30.05 in 10.0 mi South 17.3 mph 28.8 mph N/A   Clear
11:52 AM 53.1 °F - 34.0 °F 48% 30.04 in 10.0 mi SSW 19.6 mph 29.9 mph N/A   Clear
12:52 PM 59.0 °F - 39.0 °F 48% 29.97 in 10.0 mi SSW 18.4 mph 26.5 mph N/A   Clear
1:52 PM 62.1 °F - 41.0 °F 46% 29.94 in 10.0 mi South 18.4 mph 24.2 mph N/A   Clear
2:52 PM 63.0 °F - 41.0 °F 45% 29.91 in 10.0 mi SSW 19.6 mph 26.5 mph N/A   Clear
3:52 PM 63.0 °F - 42.1 °F 46% 29.91 in 10.0 mi South 16.1 mph - N/A   Clear
4:52 PM 62.1 °F - 42.1 °F 48% 29.90 in 10.0 mi South 16.1 mph 21.9 mph N/A   Clear
5:52 PM 60.1 °F - 43.0 °F 53% 29.91 in 10.0 mi South 10.4 mph - N/A   Clear
6:52 PM 57.0 °F - 44.1 °F 62% 29.91 in 10.0 mi South 12.7 mph - N/A   Clear
7:52 PM 55.9 °F - 45.0 °F 67% 29.91 in 10.0 mi SSE 12.7 mph - N/A   Clear
8:52 PM 55.0 °F - 46.0 °F 72% 29.91 in 10.0 mi SSE 13.8 mph - N/A   Clear
9:52 PM 54.0 °F - 46.0 °F 75% 29.91 in 10.0 mi SSE 11.5 mph - N/A   Clear
10:52 PM 54.0 °F - 46.0 °F 75% 29.90 in 10.0 mi South 11.5 mph - N/A   Clear
11:52 PM 52.0 °F - 45.0 °F 77% 29.88 in 10.0 mi South 13.8 mph - N/A   Clear